Cape Girardeau, MO

5:07 AM CDT on May 27, 2017 (GMT -0500)
Cape Girardeau Regional

Weather History for KCGI - April, 2014

Change the Weather History Date:

Wednesday, April 30, 2014

  Actual Average Record
Temperature  
Mean Temperature 52 °F 62 °F  
Max Temperature 59 °F 73 °F 88 °F (1986)
Min Temperature 45 °F 51 °F 36 °F (1964)
Degree Days  
Heating Degree Days 13 5  
Month to date heating degree days 220 264  
Since 1 July heating degree days 4863 4318  
Cooling Degree Days 0 2  
Month to date cooling degree days 11 27  
Year to date cooling degree days 11 31  
Growing Degree Days 1 (Base 50)    
Moisture  
Dew Point 42 °F    
Average Humidity 70    
Maximum Humidity 89    
Minimum Humidity 51    
Precipitation  
Precipitation 0.00 in 0.17 in 1.49 in (2011)
Month to date precipitation 8.01 4.36  
Year to date precipitation 13.46 15.64  
Sea Level Pressure  
Sea Level Pressure 29.89 in    
Wind  
Wind Speed 8 mph (West)    
Max Wind Speed 21 mph    
Max Gust Speed 24 mph    
Visibility 10 miles    
Events      
T = Trace of Precipitation, MM = Missing Value Source: NWS Daily Summary

Daily Weather History Graph

Daily Weather History Graph

Search for Another Location

Airport or City:

Trip Planner

Search our weather history database for the weather conditions in past years. The results will help you decide how hot, cold, wet, or windy it might be!

Date:

Astronomy

Apr. 30, 2014 Rise Set
Actual Time 6:04 AM CDT 7:46 PM CDT
Civil Twilight 5:36 AM CDT 8:14 PM CDT
Nautical Twilight 5:03 AM CDT 8:48 PM CDT
Astronomical Twilight 4:27 AM CDT 9:24 PM CDT
Moon 7:06 AM CDT (4/30) 9:24 PM CDT (4/30)
Length of Visible Light 14h 38m
Length of Day
13h 42m
New Moon, 2% of the Moon is Illuminated
Apr 30
New Moon
May 6
First Quarter
May 14
Full
May 21
Last Quarter
May 28
New

Hourly Weather History & Observations

Time (CDT) Temp. Windchill Dew Point Humidity Pressure Visibility Wind Dir Wind Speed Gust Speed Precip Events Conditions
12:53 AM 48.0 °F - 43.0 °F 83% 29.79 in 10.0 mi West 8.1 mph - N/A   Clear
1:53 AM 46.9 °F - 42.1 °F 83% 29.78 in 10.0 mi West 8.1 mph - N/A   Clear
2:53 AM 46.9 °F - 42.1 °F 83% 29.78 in 10.0 mi West 6.9 mph - N/A   Clear
3:53 AM 46.0 °F 43.1 °F 42.1 °F 86% 29.80 in 10.0 mi WSW 5.8 mph - N/A   Clear
4:53 AM 45.0 °F 41.8 °F 41.0 °F 86% 29.81 in 10.0 mi WSW 5.8 mph - N/A   Clear
5:53 AM 45.0 °F 41.8 °F 41.0 °F 86% 29.82 in 10.0 mi West 5.8 mph - N/A   Clear
6:53 AM 48.0 °F - 43.0 °F 83% 29.83 in 10.0 mi West 9.2 mph - N/A   Overcast
7:53 AM 48.9 °F - 43.0 °F 80% 29.84 in 10.0 mi West 8.1 mph - N/A   Overcast
8:43 AM 50.0 °F - 44.1 °F 80% 29.86 in 10.0 mi West 6.9 mph - N/A   Overcast
8:53 AM 50.0 °F - 44.1 °F 80% 29.86 in 10.0 mi West 8.1 mph - N/A   Overcast
9:53 AM 51.8 °F - 44.6 °F 76% 29.87 in 10.0 mi WSW 6.9 mph - N/A   Overcast
10:32 AM 53.1 °F - 45.0 °F 74% 29.88 in 10.0 mi West 4.6 mph - N/A   Overcast
10:49 AM 51.8 °F - 44.6 °F 76% 29.89 in 10.0 mi NW 9.2 mph - N/A   Overcast
10:53 AM 51.1 °F - 44.1 °F 77% 29.90 in 10.0 mi NW 5.8 mph - N/A   Overcast
11:24 AM 52.0 °F - 44.1 °F 74% 29.90 in 10.0 mi West 4.6 mph - N/A   Overcast
11:53 AM 53.1 °F - 44.1 °F 71% 29.91 in 10.0 mi West 6.9 mph - N/A   Overcast
12:53 PM 57.0 °F - 45.0 °F 64% 29.91 in 10.0 mi WSW 12.7 mph - N/A   Overcast
1:53 PM 57.0 °F - 42.1 °F 57% 29.90 in 10.0 mi West 15.0 mph - N/A   Overcast
2:53 PM 57.0 °F - 42.1 °F 57% 29.91 in 10.0 mi West 13.8 mph - N/A   Overcast
3:53 PM 55.9 °F - 41.0 °F 57% 29.91 in 10.0 mi West 13.8 mph - N/A   Overcast
4:53 PM 57.0 °F - 39.0 °F 51% 29.92 in 10.0 mi NW 9.2 mph - N/A   Overcast
5:53 PM 55.9 °F - 37.0 °F 49% 29.93 in 10.0 mi NNW 8.1 mph - N/A   Overcast
6:53 PM 54.0 °F - 39.0 °F 57% 29.94 in 10.0 mi West 6.9 mph - N/A   Mostly Cloudy
7:53 PM 50.0 °F - 41.0 °F 71% 29.96 in 10.0 mi South 6.9 mph - N/A   Scattered Clouds
8:53 PM 48.0 °F - 41.0 °F 77% 29.97 in 10.0 mi South 5.8 mph - N/A   Clear
9:53 PM 50.0 °F - 39.9 °F 68% 29.97 in 10.0 mi SSW 6.9 mph - N/A   Mostly Cloudy
10:53 PM 50.0 °F - 42.1 °F 74% 29.97 in 10.0 mi WSW 4.6 mph - N/A   Overcast
11:53 PM 51.1 °F - 39.9 °F 66% 29.97 in 10.0 mi WSW 8.1 mph - N/A   Overcast